Regional Weather Roundup
Issued by NWS Sioux Falls, SD

Home | Current Version | Previous Version | Text Only | Print | Product List | Glossary Off
Versions: 1 2 3 4 5 6 7 8 9 10 11 12 13 14 15 16 17 18 19 20 21 22 23 24 25 26 27 28 29 30 31 32 33 34 35 36 37 38 39 40 41 42 43 44 45 46 47 48 49 50

000
ASUS43 KFSD 221910
RWRFSD

WEATHER ROUNDUP FOR SE SOUTH DAKOTA/SW MINNESOTA/NW IOWA
NATIONAL WEATHER SERVICE SIOUX FALLS SD
200 PM CDT SUN APR 22 2018

NOTE: "FAIR" INDICATES FEW OR NO CLOUDS BELOW 12,000 FEET WITH NO
SIGNIFICANT WEATHER AND OR OBSTRUCTIONS TO VISIBILITY.


SDZ038>040-050-052>070-222000-
SOUTHEAST SOUTH DAKOTA

CITY           SKY/WX    TMP DP  RH WIND       PRES   REMARKS
BROOKINGS      SUNNY     57  37  47 SE15G22   30.26F
CHAMBERLAIN    SUNNY     59  40  49 S7        30.22F
HURON          NOT AVBL
MADISON        FAIR      57  39  51 SE14      30.25F
MITCHELL       SUNNY     59  36  42 SE14G21   30.24F
SIOUX FALLS    MOSUNNY   60  35  39 E12G22    30.25F
WINNER         FAIR      58  38  47 S12       30.21F
YANKTON        SUNNY     60  37  42 SE16      30.23F
$$

MNZ071-072-080-081-089-090-097-098-222000-
SOUTHWEST MINNESOTA

CITY           SKY/WX    TMP DP  RH WIND       PRES   REMARKS
FAIRMONT       MOSUNNY   49  36  61 NE7       30.32F
JACKSON        SUNNY     45  37  76 NE6       30.32F
LUVERNE        SUNNY     57  34  41 E9G16     30.28F
MARSHALL       SUNNY     53  38  56 S12       30.30F
MONTEVIDEO     SUNNY     59  37  44 S8        30.30S
PIPESTONE      SUNNY    N/A N/A N/A SE13      30.28F
REDWOOD FALLS  SUNNY     57  38  48 SE14      30.30F
TRACY          SUNNY     52  41  65 SE10      30.30F
WINDOM         SUNNY     52  30  43 SE7       30.32S
WORTHINGTON    SUNNY     53  35  50 E10       30.30F
$$

IAZ001>003-012>014-020>022-031-032-NEZ013-014-SDZ071-222000-
NORTHWEST IOWA

CITY           SKY/WX    TMP DP  RH WIND       PRES   REMARKS
CHEROKEE       SUNNY     59  39  48 E8G16     30.26F
DENISON        MOSUNNY   64  30  27 E9G15     30.23F
ESTHERVILLE    CLOUDY    45  37  73 N8        30.30F
LE MARS        SUNNY     63  34  34 E7G14     30.25F
ORANGE CITY    SUNNY     61  37  41 E5        30.27S
SHELDON        SUNNY     57  36  44 E9G16     30.26F
SIOUX CITY     SUNNY     66  30  26 E8        30.22F
SPENCER        SUNNY     57  37  47 E13       30.28F
STORM LAKE     SUNNY     59  36  41 E16       30.24F
$$

ABBREVIATIONS USED IN REMARKS
   TC - TEMPERATURE IN CELSIUS
  WCI - WIND CHILL INDEX
   HX - HEAT INDEX
  VSB - VISIBILITY





USA.gov is the U.S. government's official web portal to all federal, state and local government web resources and services.